Retour au catalogue

CZ-6A DEB

ActifSSO
NORAD 54538·DEBRIS·🇨🇳 China

Lancé Nov 11, 2022 depuis Taiyuan Satellite Launch Center

Loading…

Prochains Passages (prochaines 24 heures)

TLE

FraisSource: Space-Track

Époque: Sep 14, 2026, 07:11 UTC

1 54538U 22151KN  26257.29983686 -.00000037  00000-0  38310-5 0  9990
2 54538  98.8750 218.2329 0120185 189.3383 170.5544 13.95834180195286

Suivez CZ-6A DEB en temps réel avec AllMySat

Download on the App Store